DEKAM EDFM-EDDE

Flight info

Callsign DEKAM
Flight time 1h 34m
Altitude 3500
Route VFR
Aircraft PA24/L-SDGRY/S

Departure

Time 2026-04-26 16:19
Airport Mannheim-City Airport (EDFM)

Arrival

Time 2026-04-26 17:53
Airport Erfurt-Weimar Airport (EDDE)
Time Latitude Longitude Altitude Speed Heading
2026-04-26 16:02 49.47561 8.52029 312 ft 0 kts 183°
2026-04-26 16:14 49.47539 8.52085 312 ft 16 kts 89°
2026-04-26 16:14 49.47521 8.52171 313 ft 11 kts 181°
2026-04-26 16:14 49.47371 8.52158 313 ft 0 kts 203°
2026-04-26 16:16 49.47338 8.52155 312 ft 0 kts 184°
2026-04-26 16:16 49.47292 8.52151 311 ft 17 kts 184°
2026-04-26 16:16 49.47247 8.52124 310 ft 8 kts 263°
2026-04-26 16:16 49.47247 8.52110 311 ft 0 kts 272°
2026-04-26 16:17 49.47253 8.51951 312 ft 51 kts 274°
2026-04-26 16:17 49.47271 8.51158 377 ft 87 kts 278°
2026-04-26 16:18 49.47300 8.50170 653 ft 96 kts 275°
2026-04-26 16:18 49.46677 8.48701 904 ft 112 kts 168°
2026-04-26 16:19 49.46083 8.50642 1181 ft 111 kts 87°
2026-04-26 16:19 49.46045 8.51760 1202 ft 96 kts 88°
2026-04-26 16:19 49.45971 8.53778 1116 ft 93 kts 86°
2026-04-26 16:20 49.46073 8.54729 1085 ft 90 kts 52°
2026-04-26 16:20 49.47072 8.54458 944 ft 89 kts 306°
2026-04-26 16:20 49.47214 8.53609 722 ft 80 kts 272°
2026-04-26 16:21 49.47226 8.52756 522 ft 80 kts 279°
2026-04-26 16:21 49.47252 8.51931 332 ft 73 kts 279°
2026-04-26 16:21 49.47272 8.51235 326 ft 67 kts 275°
2026-04-26 16:21 49.47281 8.50455 446 ft 73 kts 277°
2026-04-26 16:22 49.47283 8.49699 592 ft 71 kts 271°
2026-04-26 16:22 49.47161 8.48951 759 ft 77 kts 224°
2026-04-26 16:22 49.46610 8.48995 903 ft 95 kts 133°
2026-04-26 16:22 49.46415 8.50003 1027 ft 107 kts 93°
2026-04-26 16:23 49.46300 8.51120 1157 ft 103 kts 91°
2026-04-26 16:23 49.46209 8.52190 1199 ft 103 kts 92°
2026-04-26 16:23 49.46109 8.53291 1197 ft 102 kts 92°
2026-04-26 16:23 49.46037 8.54327 1103 ft 88 kts 80°
2026-04-26 16:24 49.46380 8.54863 999 ft 69 kts 360°
2026-04-26 16:24 49.46811 8.54602 878 ft 69 kts 318°
2026-04-26 16:24 49.47092 8.53967 784 ft 76 kts 294°
2026-04-26 16:24 49.47211 8.53208 644 ft 68 kts 277°
2026-04-26 16:25 49.47232 8.52472 465 ft 69 kts 281°
2026-04-26 16:25 49.47257 8.51758 312 ft 62 kts 281°
2026-04-26 16:25 49.47277 8.51102 375 ft 70 kts 274°
2026-04-26 16:25 49.47257 8.50276 615 ft 83 kts 272°
2026-04-26 16:26 49.47533 8.49557 927 ft 87 kts 336°
2026-04-26 16:26 49.47941 8.49525 1115 ft 91 kts 20°
2026-04-26 16:26 49.48472 8.50547 1438 ft 102 kts 63°
2026-04-26 16:26 49.48762 8.51576 1647 ft 106 kts 65°
2026-04-26 16:27 49.49045 8.52680 1716 ft 114 kts 66°
2026-04-26 16:27 49.49337 8.53844 1770 ft 117 kts 66°
2026-04-26 16:27 49.49632 8.55043 1801 ft 122 kts 63°
2026-04-26 16:27 49.50181 8.56006 1846 ft 123 kts 27°
2026-04-26 16:28 49.51021 8.56276 1870 ft 127 kts
2026-04-26 16:28 49.51920 8.56248 1863 ft 129 kts
2026-04-26 16:28 49.52820 8.56152 1863 ft 130 kts 358°
2026-04-26 16:28 49.53735 8.56099 1858 ft 131 kts
2026-04-26 16:29 49.54648 8.56035 1862 ft 132 kts 359°
2026-04-26 16:29 49.55556 8.55975 1907 ft 129 kts 359°
2026-04-26 16:29 49.56450 8.55939 1905 ft 133 kts 360°
2026-04-26 16:29 49.57372 8.55913 1933 ft 131 kts
2026-04-26 16:30 49.58274 8.55851 1933 ft 131 kts 357°
2026-04-26 16:30 49.59178 8.55683 1933 ft 129 kts 355°
2026-04-26 16:30 49.60075 8.55563 1944 ft 129 kts 358°
2026-04-26 16:30 49.60977 8.55568 1936 ft 130 kts
2026-04-26 16:31 49.61880 8.55610 1952 ft 130 kts
2026-04-26 16:31 49.62787 8.55613 1966 ft 132 kts
2026-04-26 16:31 49.63694 8.55635 1971 ft 130 kts
2026-04-26 16:31 49.64594 8.55661 2019 ft 128 kts
2026-04-26 16:32 49.65475 8.55736 2054 ft 127 kts
2026-04-26 16:32 49.66062 8.55788 2082 ft 128 kts
2026-04-26 16:32 49.67262 8.55834 2124 ft 129 kts
2026-04-26 16:32 49.68151 8.55731 2152 ft 127 kts 356°
2026-04-26 16:33 49.69030 8.55542 2152 ft 128 kts 353°
2026-04-26 16:33 49.69909 8.55306 2192 ft 126 kts 352°
2026-04-26 16:33 49.70766 8.55095 2257 ft 123 kts 355°
2026-04-26 16:33 49.71627 8.54967 2260 ft 127 kts 358°
2026-04-26 16:34 49.72502 8.54887 2286 ft 127 kts
2026-04-26 16:34 49.73400 8.54875 2316 ft 127 kts
2026-04-26 16:34 49.74288 8.54873 2331 ft 127 kts
2026-04-26 16:34 49.75168 8.54956 2347 ft 128 kts
2026-04-26 16:35 49.76030 8.55174 2431 ft 123 kts 15°
2026-04-26 16:35 49.76830 8.55569 2480 ft 121 kts 21°
2026-04-26 16:35 49.77573 8.56019 2415 ft 110 kts 21°
2026-04-26 16:35 49.78287 8.56431 2278 ft 115 kts 22°
2026-04-26 16:36 49.79042 8.56894 2298 ft 111 kts 23°
2026-04-26 16:36 49.79748 8.57369 2260 ft 111 kts 26°
2026-04-26 16:36 49.80445 8.57855 2266 ft 111 kts 23°
2026-04-26 16:36 49.81168 8.58338 2306 ft 114 kts 25°
2026-04-26 16:37 49.81885 8.58804 2304 ft 112 kts 19°
2026-04-26 16:37 49.82634 8.59147 2261 ft 114 kts 15°
2026-04-26 16:37 49.83408 8.59431 2173 ft 117 kts 13°
2026-04-26 16:37 49.84220 8.59681 2088 ft 118 kts 12°
2026-04-26 16:38 49.85019 8.59902 2034 ft 116 kts 11°
2026-04-26 16:38 49.85816 8.60102 2040 ft 118 kts
2026-04-26 16:38 49.86672 8.60278 2018 ft 129 kts
2026-04-26 16:38 49.87564 8.60453 2067 ft 129 kts
2026-04-26 16:39 49.88466 8.60616 2066 ft 132 kts
2026-04-26 16:39 49.89361 8.60780 2104 ft 131 kts
2026-04-26 16:39 49.90263 8.61002 2102 ft 132 kts 11°
2026-04-26 16:39 49.91179 8.61257 2080 ft 136 kts 10°
2026-04-26 16:40 49.92115 8.61499 2055 ft 137 kts
2026-04-26 16:40 49.93064 8.61598 2062 ft 136 kts 360°
2026-04-26 16:40 49.94008 8.61427 2059 ft 137 kts 353°
2026-04-26 16:40 49.94935 8.61163 2061 ft 135 kts 353°
2026-04-26 16:41 49.95825 8.60909 1958 ft 125 kts 352°
2026-04-26 16:41 49.96676 8.60691 1774 ft 122 kts 354°
2026-04-26 16:41 49.97518 8.60470 1552 ft 124 kts 353°
2026-04-26 16:41 49.98383 8.60255 1439 ft 128 kts 353°
2026-04-26 16:42 49.99256 8.60019 1330 ft 127 kts 352°
2026-04-26 16:42 50.00140 8.59820 1307 ft 128 kts 355°
2026-04-26 16:42 50.01001 8.59481 1300 ft 128 kts 342°
2026-04-26 16:42 50.01760 8.58718 1235 ft 132 kts 315°
2026-04-26 16:43 50.02109 8.57444 1183 ft 129 kts 276°
2026-04-26 16:43 50.01761 8.56236 1290 ft 124 kts 219°
2026-04-26 16:43 50.01040 8.55916 1360 ft 118 kts 173°
2026-04-26 16:43 50.00388 8.56579 1445 ft 113 kts 117°
2026-04-26 16:44 50.00322 8.57715 1540 ft 106 kts 68°
2026-04-26 16:44 50.00809 8.58558 1521 ft 109 kts 26°
2026-04-26 16:44 50.01605 8.58728 1544 ft 127 kts 356°
2026-04-26 16:44 50.02529 8.58511 1590 ft 140 kts 353°
2026-04-26 16:45 50.03509 8.58266 1604 ft 147 kts 354°
2026-04-26 16:45 50.04521 8.58142 1705 ft 146 kts
2026-04-26 16:45 50.05540 8.58252 1813 ft 149 kts
2026-04-26 16:45 50.06582 8.58483 1857 ft 151 kts 10°
2026-04-26 16:46 50.07631 8.58704 1838 ft 154 kts
2026-04-26 16:46 50.08701 8.58828 1859 ft 147 kts
2026-04-26 16:46 50.09688 8.58933 1874 ft 140 kts
2026-04-26 16:46 50.10656 8.58988 1814 ft 139 kts
2026-04-26 16:47 50.11636 8.58983 1760 ft 142 kts
2026-04-26 16:47 50.12624 8.58997 1665 ft 143 kts
2026-04-26 16:47 50.13594 8.59207 1656 ft 140 kts 15°
2026-04-26 16:47 50.14490 8.59673 1757 ft 130 kts 20°
2026-04-26 16:48 50.15298 8.60172 1790 ft 120 kts 24°
2026-04-26 16:48 50.15981 8.60732 1674 ft 108 kts 28°
2026-04-26 16:48 50.16642 8.61295 1578 ft 106 kts 27°
2026-04-26 16:48 50.17294 8.61809 1488 ft 108 kts 26°
2026-04-26 16:49 50.17990 8.62347 1443 ft 112 kts 30°
2026-04-26 16:49 50.18600 8.63085 1474 ft 107 kts 46°
2026-04-26 16:49 50.19006 8.64059 1481 ft 110 kts 63°
2026-04-26 16:49 50.19314 8.65168 1455 ft 113 kts 66°
2026-04-26 16:50 50.19639 8.66288 1485 ft 114 kts 60°
2026-04-26 16:50 50.20015 8.67402 1622 ft 119 kts 60°
2026-04-26 16:50 50.20389 8.68557 1830 ft 120 kts 60°
2026-04-26 16:50 50.20769 8.69728 2051 ft 121 kts 60°
2026-04-26 16:51 50.21150 8.70924 2259 ft 125 kts 61°
2026-04-26 16:51 50.21544 8.72134 2437 ft 126 kts 60°
2026-04-26 16:51 50.21937 8.73399 2515 ft 136 kts 62°
2026-04-26 16:51 50.22351 8.74783 2508 ft 143 kts 63°
2026-04-26 16:52 50.22765 8.76239 2522 ft 149 kts 62°
2026-04-26 16:52 50.22915 8.76732 2521 ft 149 kts 62°
2026-04-26 16:52 50.23514 8.78726 2528 ft 153 kts 62°
2026-04-26 16:52 50.23958 8.80236 2523 ft 153 kts 61°
2026-04-26 16:53 50.24430 8.81717 2520 ft 153 kts 61°
2026-04-26 16:53 50.24882 8.83218 2518 ft 153 kts 63°
2026-04-26 16:53 50.25330 8.84692 2517 ft 154 kts 61°
2026-04-26 16:53 50.25800 8.86180 2513 ft 152 kts 63°
2026-04-26 16:54 50.26251 8.87674 2512 ft 151 kts 61°
2026-04-26 16:54 50.26703 8.89163 2517 ft 152 kts 61°
2026-04-26 16:54 50.27164 8.90633 2516 ft 153 kts 62°
2026-04-26 16:54 50.27630 8.92135 2517 ft 154 kts 63°
2026-04-26 16:55 50.28096 8.93650 2515 ft 154 kts 62°
2026-04-26 16:55 50.28556 8.95153 2516 ft 153 kts 61°
2026-04-26 16:55 50.29032 8.96672 2515 ft 156 kts 64°
2026-04-26 16:55 50.29496 8.98212 2516 ft 157 kts 60°
2026-04-26 16:56 50.30469 9.01228 2511 ft 155 kts 62°
2026-04-26 16:56 50.30960 9.02720 2511 ft 155 kts 61°
2026-04-26 16:56 50.31446 9.04222 2512 ft 154 kts 60°
2026-04-26 16:57 50.31948 9.05724 2513 ft 156 kts 62°
2026-04-26 16:57 50.32448 9.07224 2515 ft 156 kts 62°
2026-04-26 16:57 50.33410 9.10262 2515 ft 156 kts 62°
2026-04-26 16:58 50.33905 9.11765 2515 ft 155 kts 61°
2026-04-26 16:58 50.34237 9.12748 2516 ft 153 kts 61°
2026-04-26 16:58 50.35376 9.16195 2518 ft 154 kts 61°
2026-04-26 16:59 50.35866 9.17691 2515 ft 155 kts 60°
2026-04-26 16:59 50.36868 9.20687 2515 ft 155 kts 60°
2026-04-26 17:00 50.37853 9.23703 2516 ft 154 kts 62°
2026-04-26 17:00 50.38871 9.26668 2517 ft 153 kts 60°
2026-04-26 17:00 50.39382 9.28129 2519 ft 151 kts 61°
2026-04-26 17:01 50.39865 9.29601 2520 ft 153 kts 62°
2026-04-26 17:01 50.40352 9.31094 2519 ft 155 kts 61°
2026-04-26 17:01 50.40860 9.32563 2688 ft 144 kts 60°
2026-04-26 17:01 50.41306 9.33863 3029 ft 127 kts 60°
2026-04-26 17:02 50.41687 9.34987 3423 ft 113 kts 61°
2026-04-26 17:02 50.42030 9.36092 3674 ft 113 kts 67°
2026-04-26 17:02 50.42288 9.37162 4060 ft 101 kts 68°
2026-04-26 17:02 50.42542 9.38246 4274 ft 107 kts 68°
2026-04-26 17:03 50.42791 9.39314 4617 ft 102 kts 68°
2026-04-26 17:03 50.43036 9.40351 4941 ft 100 kts 68°
2026-04-26 17:03 50.43282 9.41392 5215 ft 102 kts 68°
2026-04-26 17:03 50.43521 9.42444 5484 ft 105 kts 68°
2026-04-26 17:04 50.43784 9.43629 5501 ft 128 kts 69°
2026-04-26 17:04 50.44095 9.45012 5535 ft 139 kts 69°
2026-04-26 17:04 50.44426 9.46472 5557 ft 145 kts 69°
2026-04-26 17:04 50.44770 9.47991 5559 ft 150 kts 68°
2026-04-26 17:05 50.45133 9.49545 5550 ft 153 kts 69°
2026-04-26 17:05 50.45502 9.51127 5543 ft 155 kts 68°
2026-04-26 17:05 50.45882 9.52718 5540 ft 156 kts 68°
2026-04-26 17:05 50.46259 9.54313 5539 ft 156 kts 68°
2026-04-26 17:06 50.46626 9.55920 5540 ft 156 kts 68°
2026-04-26 17:06 50.47003 9.57523 5540 ft 156 kts 68°
2026-04-26 17:06 50.47380 9.59119 5539 ft 156 kts 68°
2026-04-26 17:06 50.47759 9.60709 5538 ft 156 kts 68°
2026-04-26 17:07 50.48132 9.62301 5542 ft 155 kts 68°
2026-04-26 17:07 50.48507 9.63876 5541 ft 154 kts 67°
2026-04-26 17:07 50.48872 9.65454 5541 ft 154 kts 68°
2026-04-26 17:07 50.49254 9.67022 5541 ft 154 kts 68°
2026-04-26 17:08 50.49614 9.68604 5541 ft 154 kts 68°
2026-04-26 17:08 50.49970 9.70171 5541 ft 154 kts 67°
2026-04-26 17:08 50.50340 9.71756 5541 ft 154 kts 68°
2026-04-26 17:08 50.50711 9.73332 5541 ft 154 kts 67°
2026-04-26 17:09 50.51088 9.74910 5540 ft 154 kts 68°
2026-04-26 17:09 50.51337 9.75959 5541 ft 154 kts 66°
2026-04-26 17:09 50.51841 9.78071 5540 ft 155 kts 67°
2026-04-26 17:09 50.52238 9.79656 5539 ft 156 kts 68°
2026-04-26 17:10 50.52641 9.81242 5536 ft 156 kts 67°
2026-04-26 17:10 50.53046 9.82820 5539 ft 156 kts 68°
2026-04-26 17:10 50.53445 9.84375 5540 ft 155 kts 67°
2026-04-26 17:10 50.53850 9.85948 5541 ft 155 kts 67°
2026-04-26 17:11 50.54259 9.87520 5541 ft 155 kts 67°
2026-04-26 17:11 50.54669 9.89093 5541 ft 155 kts 67°
2026-04-26 17:11 50.55076 9.90666 5546 ft 155 kts 67°
2026-04-26 17:11 50.55483 9.92243 5546 ft 155 kts 67°
2026-04-26 17:12 50.56306 9.95393 5546 ft 155 kts 67°
2026-04-26 17:12 50.56716 9.96969 5546 ft 156 kts 67°
2026-04-26 17:13 50.57539 10.00110 5549 ft 155 kts 67°
2026-04-26 17:13 50.57951 10.01683 5549 ft 155 kts 67°
2026-04-26 17:13 50.58777 10.04833 5550 ft 155 kts 66°
2026-04-26 17:14 50.59190 10.06409 5547 ft 155 kts 66°
2026-04-26 17:14 50.60021 10.09520 5547 ft 155 kts 66°
2026-04-26 17:14 50.60440 10.11089 5546 ft 155 kts 66°
2026-04-26 17:15 50.61275 10.14225 5549 ft 155 kts 66°
2026-04-26 17:15 50.61692 10.15790 5549 ft 155 kts 66°
2026-04-26 17:15 50.62113 10.17357 5552 ft 156 kts 66°
2026-04-26 17:16 50.62531 10.18928 5553 ft 156 kts 66°
2026-04-26 17:16 50.62953 10.20502 5552 ft 156 kts 66°
2026-04-26 17:16 50.63375 10.22069 5551 ft 155 kts 66°
2026-04-26 17:16 50.63793 10.23638 5551 ft 155 kts 70°
2026-04-26 17:17 50.63984 10.25309 5552 ft 156 kts 80°
2026-04-26 17:17 50.64160 10.26993 5552 ft 156 kts 79°
2026-04-26 17:17 50.64332 10.28677 5552 ft 156 kts 80°
2026-04-26 17:17 50.64508 10.30367 5554 ft 156 kts 80°
2026-04-26 17:18 50.64683 10.32031 5554 ft 156 kts 80°
2026-04-26 17:18 50.64866 10.33741 5554 ft 156 kts 80°
2026-04-26 17:18 50.65044 10.35410 5554 ft 156 kts 80°
2026-04-26 17:18 50.65223 10.37101 5555 ft 156 kts 79°
2026-04-26 17:19 50.65591 10.40489 5557 ft 157 kts 79°
2026-04-26 17:19 50.65775 10.42183 5557 ft 157 kts 80°
2026-04-26 17:19 50.65958 10.43881 5557 ft 157 kts 79°
2026-04-26 17:20 50.66143 10.45578 5555 ft 157 kts 79°
2026-04-26 17:20 50.66265 10.46701 5555 ft 157 kts 79°
2026-04-26 17:20 50.66514 10.48962 5554 ft 157 kts 79°
2026-04-26 17:20 50.66699 10.50659 5560 ft 157 kts 79°
2026-04-26 17:21 50.66884 10.52351 5560 ft 157 kts 79°
2026-04-26 17:21 50.67074 10.54045 5560 ft 157 kts 79°
2026-04-26 17:21 50.67265 10.55733 5560 ft 156 kts 79°
2026-04-26 17:21 50.67452 10.57433 5566 ft 157 kts 80°
2026-04-26 17:22 50.67643 10.59126 5565 ft 157 kts 79°
2026-04-26 17:22 50.67837 10.60824 5565 ft 157 kts 79°
2026-04-26 17:22 50.68028 10.62520 5565 ft 157 kts 79°
2026-04-26 17:22 50.68220 10.64186 5565 ft 157 kts 79°
2026-04-26 17:23 50.68412 10.65876 5566 ft 157 kts 79°
2026-04-26 17:23 50.68607 10.67567 5567 ft 157 kts 79°
2026-04-26 17:23 50.68801 10.69260 5568 ft 157 kts 79°
2026-04-26 17:23 50.68996 10.70950 5575 ft 156 kts 79°
2026-04-26 17:24 50.69194 10.72642 5576 ft 157 kts 79°
2026-04-26 17:24 50.69395 10.74338 5576 ft 157 kts 78°
2026-04-26 17:24 50.69595 10.76036 5577 ft 158 kts 79°
2026-04-26 17:24 50.69795 10.77735 5577 ft 157 kts 79°
2026-04-26 17:25 50.69996 10.79429 5579 ft 157 kts 78°
2026-04-26 17:25 50.70190 10.81123 5581 ft 157 kts 79°
2026-04-26 17:25 50.70375 10.82821 5577 ft 157 kts 79°
2026-04-26 17:25 50.70558 10.84525 5577 ft 158 kts 78°
2026-04-26 17:26 50.70748 10.86228 5577 ft 158 kts 78°
2026-04-26 17:26 50.70938 10.87921 5581 ft 157 kts 78°
2026-04-26 17:26 50.71134 10.89634 5571 ft 158 kts 79°
2026-04-26 17:26 50.71322 10.91336 5583 ft 157 kts 78°
2026-04-26 17:27 50.71512 10.93011 5583 ft 157 kts 78°
2026-04-26 17:27 50.71703 10.94730 5573 ft 157 kts 78°
2026-04-26 17:27 50.71979 10.96274 5531 ft 138 kts 64°
2026-04-26 17:27 50.72437 10.97509 5416 ft 124 kts 58°
2026-04-26 17:28 50.72841 10.98658 5313 ft 114 kts 57°
2026-04-26 17:28 50.73295 10.99635 5179 ft 110 kts 49°
2026-04-26 17:28 50.73804 11.00537 5036 ft 107 kts 47°
2026-04-26 17:28 50.74302 11.01429 4857 ft 109 kts 50°
2026-04-26 17:29 50.74796 11.02339 4669 ft 109 kts 49°
2026-04-26 17:29 50.74967 11.02642 4607 ft 110 kts 48°
2026-04-26 17:29 50.75860 11.04086 4282 ft 109 kts 45°
2026-04-26 17:29 50.76418 11.04905 4101 ft 110 kts 43°
2026-04-26 17:30 50.76974 11.05720 3955 ft 110 kts 45°
2026-04-26 17:30 50.77504 11.06535 3850 ft 105 kts 44°
2026-04-26 17:30 50.78050 11.07291 3731 ft 104 kts 38°
2026-04-26 17:30 50.78681 11.07855 3611 ft 103 kts 27°
2026-04-26 17:31 50.79336 11.08310 3467 ft 105 kts 30°
2026-04-26 17:31 50.79986 11.08901 3248 ft 109 kts 32°
2026-04-26 17:31 50.80635 11.09455 3012 ft 98 kts 28°
2026-04-26 17:31 50.81233 11.09750 2755 ft 85 kts
2026-04-26 17:32 50.81734 11.09293 2453 ft 86 kts 308°
2026-04-26 17:32 50.81903 11.08369 2207 ft 89 kts 275°
2026-04-26 17:32 50.81926 11.07378 2082 ft 92 kts 276°
2026-04-26 17:32 50.81962 11.06369 1995 ft 92 kts 276°
2026-04-26 17:33 50.82010 11.05388 1934 ft 89 kts 277°
2026-04-26 17:33 50.82106 11.04444 1894 ft 85 kts 290°
2026-04-26 17:33 50.82344 11.03592 1860 ft 85 kts 305°
2026-04-26 17:34 50.83084 11.02157 1812 ft 84 kts 333°
2026-04-26 17:34 50.83640 11.01943 1788 ft 83 kts
2026-04-26 17:34 50.84160 11.02249 1766 ft 80 kts 44°
2026-04-26 17:34 50.84302 11.03078 1712 ft 86 kts 97°
2026-04-26 17:35 50.84226 11.03983 1624 ft 74 kts 92°
2026-04-26 17:35 50.84219 11.04708 1504 ft 65 kts 86°
2026-04-26 17:35 50.84221 11.05453 1371 ft 65 kts 89°
2026-04-26 17:35 50.84205 11.06133 1207 ft 60 kts 89°
2026-04-26 17:36 50.84199 11.06567 1147 ft 57 kts 87°
2026-04-26 17:36 50.84182 11.07168 1165 ft 66 kts 86°
2026-04-26 17:36 50.84175 11.07971 1365 ft 78 kts 85°
2026-04-26 17:36 50.84207 11.08894 1584 ft 91 kts 86°
2026-04-26 17:37 50.84176 11.09948 1808 ft 100 kts 94°
2026-04-26 17:37 50.83915 11.10954 2055 ft 106 kts 134°
2026-04-26 17:37 50.83198 11.11208 2088 ft 112 kts 193°
2026-04-26 17:38 50.82180 11.09303 2130 ft 122 kts 249°
2026-04-26 17:38 50.82010 11.07968 2118 ft 126 kts 268°
2026-04-26 17:38 50.82020 11.06581 2136 ft 127 kts 273°
2026-04-26 17:38 50.82081 11.05264 2149 ft 111 kts 278°
2026-04-26 17:39 50.82270 11.04214 2073 ft 93 kts 295°
2026-04-26 17:39 50.82533 11.03324 1964 ft 87 kts 303°
2026-04-26 17:39 50.82846 11.02543 1887 ft 82 kts 313°
2026-04-26 17:39 50.83295 11.02030 1794 ft 77 kts 345°
2026-04-26 17:40 50.83797 11.02057 1719 ft 73 kts 30°
2026-04-26 17:40 50.84031 11.02440 1660 ft 74 kts 58°
2026-04-26 17:40 50.84288 11.03480 1565 ft 79 kts 86°
2026-04-26 17:40 50.84248 11.04342 1530 ft 79 kts 92°
2026-04-26 17:41 50.84221 11.05176 1442 ft 71 kts 90°
2026-04-26 17:41 50.84206 11.05958 1291 ft 71 kts 89°
2026-04-26 17:41 50.84192 11.06675 1153 ft 56 kts 89°
2026-04-26 17:41 50.84189 11.07356 1255 ft 68 kts 88°
2026-04-26 17:42 50.84178 11.08176 1458 ft 81 kts 88°
2026-04-26 17:42 50.84190 11.09125 1706 ft 88 kts 85°
2026-04-26 17:42 50.84015 11.10119 1882 ft 104 kts 131°
2026-04-26 17:42 50.83313 11.10580 2060 ft 118 kts 173°
2026-04-26 17:43 50.82515 11.10282 2223 ft 120 kts 210°
2026-04-26 17:43 50.82029 11.09209 2258 ft 124 kts 255°
2026-04-26 17:43 50.81960 11.07840 2282 ft 127 kts 272°
2026-04-26 17:43 50.82039 11.06448 2426 ft 124 kts 279°
2026-04-26 17:44 50.82201 11.05130 2561 ft 124 kts 284°
2026-04-26 17:44 50.82422 11.03811 2707 ft 123 kts 291°
2026-04-26 17:44 50.82855 11.02642 2801 ft 125 kts 313°
2026-04-26 17:44 50.83498 11.01781 2726 ft 120 kts 333°
2026-04-26 17:45 50.84260 11.01259 2653 ft 118 kts 347°
2026-04-26 17:45 50.85052 11.00897 2554 ft 120 kts 348°
2026-04-26 17:45 50.85853 11.00527 2433 ft 119 kts 347°
2026-04-26 17:45 50.86634 11.00054 2374 ft 122 kts 340°
2026-04-26 17:46 50.87419 10.99489 2366 ft 125 kts 337°
2026-04-26 17:46 50.88172 10.98798 2368 ft 127 kts 330°
2026-04-26 17:46 50.88871 10.97932 2364 ft 127 kts 317°
2026-04-26 17:46 50.89381 10.96779 2344 ft 131 kts 297°
2026-04-26 17:47 50.89811 10.95493 2306 ft 132 kts 309°
2026-04-26 17:47 50.90231 10.94815 2316 ft 129 kts 325°
2026-04-26 17:47 50.91337 10.94298 2355 ft 125 kts
2026-04-26 17:47 50.92135 10.94717 2424 ft 117 kts 26°
2026-04-26 17:48 50.92873 10.95233 2445 ft 116 kts 27°
2026-04-26 17:48 50.93652 10.95614 2412 ft 121 kts 10°
2026-04-26 17:48 50.94478 10.95517 2449 ft 120 kts 344°
2026-04-26 17:48 50.95198 10.94782 2396 ft 127 kts 322°
2026-04-26 17:49 50.95736 10.93672 2391 ft 129 kts 297°
2026-04-26 17:49 50.96019 10.92314 2405 ft 130 kts 285°
2026-04-26 17:49 50.96201 10.90923 2457 ft 128 kts 283°
2026-04-26 17:49 50.96352 10.89532 2490 ft 130 kts 282°
2026-04-26 17:50 50.96525 10.88133 2513 ft 129 kts 285°
2026-04-26 17:50 50.96871 10.86806 2511 ft 132 kts 306°
2026-04-26 17:50 50.97521 10.85816 2456 ft 125 kts 333°
2026-04-26 17:50 50.98262 10.85446 2379 ft 101 kts
2026-04-26 17:51 50.98823 10.85768 2336 ft 80 kts 55°
2026-04-26 17:51 50.98911 10.86631 2165 ft 88 kts 105°
2026-04-26 17:51 50.98672 10.87571 1946 ft 92 kts 106°
2026-04-26 17:51 50.98542 10.88534 1803 ft 89 kts 93°
2026-04-26 17:52 50.98490 10.89490 1665 ft 85 kts 93°
2026-04-26 17:52 50.98418 10.90418 1540 ft 85 kts 95°
2026-04-26 17:52 50.98343 10.91348 1413 ft 84 kts 96°
2026-04-26 17:52 50.98264 10.92272 1305 ft 84 kts 94°
2026-04-26 17:53 50.98194 10.93185 1193 ft 84 kts 95°
2026-04-26 17:53 50.98121 10.94079 1078 ft 75 kts 95°
2026-04-26 17:53 50.98072 10.94745 1043 ft 39 kts 98°
2026-04-26 17:54 50.97895 10.94930 1040 ft 15 kts 156°
2026-04-26 17:54 50.97832 10.95005 1040 ft 9 kts 99°
2026-04-26 17:54 50.97822 10.95148 1039 ft 16 kts 97°
2026-04-26 17:54 50.97806 10.95359 1038 ft 22 kts 98°
2026-04-26 17:55 50.97790 10.95532 1037 ft 8 kts 96°
2026-04-26 17:55 50.97779 10.95666 1036 ft 16 kts 96°
2026-04-26 17:55 50.97766 10.95844 1035 ft 16 kts 97°
2026-04-26 17:55 50.97755 10.95974 1035 ft 13 kts 96°
2026-04-26 17:56 50.97742 10.96132 1034 ft 12 kts 97°
2026-04-26 17:56 50.97720 10.96426 1032 ft 14 kts 97°
2026-04-26 17:57 50.97676 10.96622 1031 ft 8 kts 182°
2026-04-26 17:57 50.97614 10.96609 1031 ft 6 kts 187°
2026-04-26 17:57 50.97557 10.96598 1031 ft 7 kts 187°
2026-04-26 17:57 50.97538 10.96574 1031 ft 7 kts 272°
2026-04-26 17:58 50.97547 10.96468 1032 ft 0 kts 276°